Климуха

Russia / Republic of Crimea     45˚00′47″N   35˚14′31″E
temp.,
°C
wind,
m/s
gust,
m/s
humid.,
%
clouds,
%
prec.,
mm/h
press.,
hPa
HPBL,
m
2 december, wed
wed200:00+5˚nw22820 0.0 102044
03:00+4˚nw22830 0.0 102044
06:00+4˚nnw22841 0.0 102143
09:00+5˚nw11831 0.0 102242
12:00+9˚ese11740 0.0 1023283
15:00+10˚sse22726 0.0 1022466
18:00+7˚nnw128889 0.0 102370
21:00+6˚nw129285 0.0 102443
3 december, thu
thu300:00+6˚nnw118819 0.0 102441
03:00+6˚nw118620 0.0 102441
06:00+6˚nne118535 0.0 102443
09:00+6˚n018654 0.0 102452
12:00+10˚ese127657 0.0 1024211
15:00+10˚ese227569 0.0 1024242
18:00+8˚e12830 0.0 102369
21:00+7˚ene12860 0.0 102367
4 december, fri
fri400:00+6˚nne12870 0.0 102358
03:00+6˚ne12870 0.0 102353
06:00+6˚nne22900 0.0 102267
09:00+6˚ene23910 0.0 102286
12:00+9˚ene23750 0.0 1022266
15:00+11˚e34793 0.0 1021350
18:00+8˚ene34867 0.0 1022118
21:00+7˚ene34864 0.0 1022116
5 december, sat
sat500:00+6˚ne23880 0.0 1022113
03:00+5˚nne33910 0.0 1022109
06:00+4˚ne349320 0.0 1022143
09:00+4˚ne479134 0.0 1023365
12:00+7˚ne567765 0.0 1023511
15:00+8˚ne677147 0.0 1022635
18:00+5˚nne588210 0.0 1023451
21:00+4˚ne488511 0.0 1023364
6 december, sun
sun600:00+3˚nne488734 0.0 1023352
03:00+3˚ne588654 0.0 1023460
06:00+2˚nne588782 0.0 1023501
09:00+2˚ne598789 0.0 1024544
12:00+3˚ne6879100 0.0 1024639
15:00+5˚ne677399 0.0 1023699
18:00+3˚ne597953 0.0 1023497
21:00+2˚ne598233 0.0 1024465